| time (UTC) | temp C | wind direction | speed KPH | gust KPH | rain 1hr cm | rain 24hr cm | rain mn cm | humidity % | barometer mb |
| 20260504082008 | 4 | 210 | 0.0 | 0.0 | 0.00 | 0.00 | 0.00 | 85 | 1011.0 |
| 20260504081005 | 4 | 210 | 0.0 | 0.0 | 0.00 | 0.00 | 0.00 | 85 | 1011.0 |
| 20260504080503 | 4 | 210 | 0.0 | 0.0 | 0.00 | 0.00 | 0.00 | 85 | 1010.9 |
| 20260504070124 | 3 | 210 | 0.0 | 0.0 | 0.00 | 0.00 | 0.00 | 85 | 1010.8 |
| 20260504050347 | 4 | 210 | 0.0 | 0.0 | 0.00 | 0.00 | 0.00 | 81 | 1010.6 |
| 20260504045835 | 4 | 210 | 0.0 | 0.0 | 0.00 | 0.00 | 0.00 | 81 | 1010.6 |
| 20260504045336 | 4 | 210 | 0.0 | 0.0 | 0.00 | 0.00 | 0.00 | 81 | 1010.6 |
| 20260504044937 | 4 | 210 | 0.0 | 0.0 | 0.00 | 0.00 | 0.00 | 81 | 1010.6 |
| 20260504044837 | 4 | 210 | 0.0 | 0.0 | 0.00 | 0.00 | 0.00 | 81 | 1010.6 |
| 20260504044328 | 4 | 210 | 0.0 | 0.0 | 0.00 | 0.00 | 0.00 | 80 | 1010.5 |
| 20260504043828 | 4 | 210 | 0.0 | 0.0 | 0.00 | 0.00 | 0.00 | 80 | 1010.6 |
| 20260504043620 | 4 | 210 | 0.0 | 0.0 | 0.00 | 0.00 | 0.00 | 80 | 1010.6 |
| 20260504043329 | 4 | 210 | 0.0 | 0.0 | 0.00 | 0.00 | 0.00 | 80 | 1010.6 |
| 20260504042822 | 4 | 210 | 0.0 | 0.0 | 0.00 | 0.00 | 0.00 | 80 | 1010.5 |
| 20260504042707 | 4 | 210 | 0.0 | 0.0 | 0.00 | 0.00 | 0.00 | 80 | 1010.5 |
| 20260504042322 | 4 | 210 | 0.0 | 0.0 | 0.00 | 0.00 | 0.00 | 80 | 1010.5 |
| 20260504041823 | 5 | 210 | 0.0 | 0.0 | 0.00 | 0.00 | 0.00 | 80 | 1010.3 |
| 20260504041312 | 5 | 210 | 0.0 | 0.0 | 0.00 | 0.00 | 0.00 | 79 | 1010.3 |
| 20260504040806 | 5 | 210 | 0.0 | 0.0 | 0.00 | 0.00 | 0.00 | 79 | 1010.3 |
| 20260504035252 | 5 | 210 | 0.0 | 0.0 | 0.00 | 0.00 | 0.00 | 78 | 1010.1 |
| 20260504034753 | 5 | 210 | 0.0 | 0.0 | 0.00 | 0.00 | 0.00 | 78 | 1010.1 |
| 20260504034248 | 5 | 210 | 0.0 | 0.0 | 0.00 | 0.00 | 0.00 | 78 | 1010.1 |
| 20260504033249 | 5 | 210 | 0.0 | 0.0 | 0.00 | 0.00 | 0.00 | 77 | 1010.1 |
| 20260504032738 | 5 | 210 | 0.0 | 0.0 | 0.00 | 0.00 | 0.00 | 77 | 1010.1 |
| 20260504032239 | 5 | 210 | 0.0 | 0.0 | 0.00 | 0.00 | 0.00 | 76 | 1010.1 |
| 20260504031738 | 5 | 210 | 0.0 | 0.0 | 0.00 | 0.00 | 0.00 | 76 | 1010.1 |
| 20260504031230 | 5 | 210 | 0.0 | 0.0 | 0.00 | 0.00 | 0.00 | 76 | 1010.0 |
| 20260504030731 | 5 | 210 | 0.0 | 0.0 | 0.00 | 0.00 | 0.00 | 75 | 1010.0 |
| 20260504030231 | 5 | 210 | 0.0 | 0.0 | 0.00 | 0.00 | 0.00 | 75 | 1010.0 |
| 20260504025755 | 5 | 210 | 0.0 | 0.0 | 0.00 | 0.00 | 0.00 | 74 | 1010.0 |
| 20260504025724 | 5 | 210 | 0.0 | 0.0 | 0.00 | 0.00 | 0.00 | 74 | 1010.0 |
| 20260504025224 | 6 | 210 | 0.0 | 0.0 | 0.00 | 0.00 | 0.00 | 74 | 1010.0 |
| 20260504024724 | 5 | 210 | 0.0 | 0.0 | 0.00 | 0.00 | 0.00 | 73 | 1010.0 |
| 20260504024221 | 6 | 210 | 0.0 | 0.0 | 0.00 | 0.00 | 0.00 | 73 | 1010.0 |
| 20260504023721 | 6 | 210 | 0.0 | 0.0 | 0.00 | 0.00 | 0.00 | 73 | 1010.1 |
| 20260504023218 | 6 | 210 | 0.0 | 0.0 | 0.00 | 0.00 | 0.00 | 73 | 1010.0 |
| 20260504022906 | 6 | 210 | 0.0 | 0.0 | 0.00 | 0.00 | 0.00 | 72 | 1010.0 |
| 20260504022711 | 6 | 210 | 0.0 | 0.0 | 0.00 | 0.00 | 0.00 | 72 | 1010.0 |
| 20260504022207 | 6 | 210 | 0.0 | 0.0 | 0.00 | 0.00 | 0.00 | 72 | 1010.0 |
| 20260504021706 | 6 | 210 | 0.0 | 0.0 | 0.00 | 0.00 | 0.00 | 71 | 1010.0 |
| 20260504021202 | 6 | 210 | 0.0 | 0.0 | 0.00 | 0.00 | 0.00 | 71 | 1010.1 |
| 20260504020658 | 6 | 210 | 0.0 | 0.0 | 0.00 | 0.00 | 0.00 | 70 | 1010.1 |
| 20260504020159 | 6 | 210 | 0.0 | 0.0 | 0.00 | 0.00 | 0.00 | 70 | 1010.1 |
| 20260504015651 | 6 | 210 | 0.0 | 0.0 | 0.00 | 0.00 | 0.00 | 69 | 1010.0 |
| 20260504015152 | 7 | 210 | 0.0 | 0.0 | 0.00 | 0.00 | 0.00 | 69 | 1010.0 |
| 20260504014652 | 7 | 210 | 0.0 | 0.0 | 0.00 | 0.00 | 0.00 | 68 | 1010.0 |
| 20260504013145 | 7 | 210 | 0.0 | 0.0 | 0.00 | 0.00 | 0.00 | 66 | 1009.8 |
| 20260504012641 | 7 | 210 | 0.0 | 0.0 | 0.00 | 0.00 | 0.00 | 65 | 1009.7 |
| 20260504012141 | 7 | 210 | 0.0 | 0.0 | 0.00 | 0.00 | 0.00 | 64 | 1009.7 |
| 20260504011735 | 8 | 210 | 0.0 | 0.0 | 0.00 | 0.00 | 0.00 | 64 | 1009.7 |
| 20260504011642 | 8 | 210 | 0.0 | 0.0 | 0.00 | 0.00 | 0.00 | 64 | 1009.7 |
| 20260504011228 | 8 | 210 | 0.0 | 0.0 | 0.00 | 0.00 | 0.00 | 63 | 1009.6 |
| 20260504011137 | 8 | 210 | 0.0 | 0.0 | 0.00 | 0.00 | 0.00 | 63 | 1009.6 |
| 20260504010637 | 8 | 210 | 0.0 | 0.0 | 0.00 | 0.00 | 0.00 | 61 | 1009.6 |
| 20260504010138 | 8 | 210 | 0.0 | 0.0 | 0.00 | 0.00 | 0.00 | 59 | 1009.5 |
| 20260504005633 | 8 | 210 | 0.0 | 0.0 | 0.00 | 0.00 | 0.00 | 59 | 1009.4 |
| 20260504005134 | 8 | 210 | 0.0 | 0.0 | 0.00 | 0.00 | 0.00 | 58 | 1009.4 |
| 20260504004635 | 8 | 210 | 0.0 | 0.0 | 0.00 | 0.00 | 0.00 | 57 | 1009.3 |
| 20260504004131 | 9 | 210 | 0.0 | 0.0 | 0.00 | 0.00 | 0.00 | 54 | 1009.2 |
| 20260504003133 | 10 | 210 | 0.0 | 0.0 | 0.00 | 0.00 | 0.00 | 55 | 1009.1 |
| 20260504002722 | 10 | 210 | 0.0 | 0.0 | 0.00 | 0.00 | 0.00 | 55 | 1008.9 |
| 20260504002628 | 10 | 210 | 0.0 | 0.0 | 0.00 | 0.00 | 0.00 | 55 | 1008.9 |
| 20260504002129 | 10 | 210 | 0.0 | 0.0 | 0.00 | 0.00 | 0.00 | 54 | 1008.9 |
| 20260504001630 | 10 | 210 | 0.0 | 0.0 | 0.00 | 0.00 | 0.00 | 53 | 1008.8 |
| 20260504001126 | 10 | 210 | 0.0 | 0.0 | 0.00 | 0.00 | 0.00 | 52 | 1008.7 |
| 20260504000627 | 10 | 210 | 0.0 | 0.0 | 0.00 | 0.00 | 0.00 | 51 | 1008.7 |
| 20260504000118 | 11 | 210 | 0.0 | 0.0 | 0.00 | 0.00 | 0.00 | 50 | 1008.6 |
| 20260503235820 | 11 | 210 | 0.0 | 0.0 | 0.00 | 0.00 | 0.00 | 49 | 1008.6 |
| 20260503235613 | 11 | 210 | 0.0 | 0.0 | 0.00 | 0.00 | 0.00 | 49 | 1008.6 |
| 20260503235228 | 11 | 210 | 0.0 | 0.0 | 0.00 | 0.00 | 0.00 | 48 | 1008.5 |
| 20260503235114 | 11 | 210 | 0.0 | 0.0 | 0.00 | 0.00 | 0.00 | 48 | 1008.5 |
| 20260503234614 | 11 | 210 | 0.0 | 0.0 | 0.00 | 0.00 | 0.00 | 47 | 1008.5 |
| 20260503234109 | 12 | 210 | 0.0 | 0.0 | 0.00 | 0.00 | 0.00 | 46 | 1008.4 |
| 20260503233111 | 12 | 210 | 1.6 | 0.0 | 0.00 | 0.00 | 0.00 | 44 | 1008.3 |
| 20260503232607 | 12 | 356 | 0.0 | 0.0 | 0.00 | 0.00 | 0.00 | 43 | 1008.3 |
| 20260503232108 | 12 | 307 | 3.2 | 4.8 | 0.00 | 0.00 | 0.00 | 43 | 1008.3 |
| 20260503231058 | 13 | 153 | 6.4 | 0.0 | 0.00 | 0.00 | 0.00 | 41 | 1008.2 |
| 20260503230559 | 13 | 229 | 1.6 | 0.0 | 0.00 | 0.00 | 0.00 | 40 | 1008.1 |
| 20260503230100 | 13 | 330 | 4.8 | 0.0 | 0.00 | 0.00 | 0.00 | 39 | 1008.1 |
| 20260503225930 | 13 | 308 | 3.2 | 0.0 | 0.00 | 0.00 | 0.00 | 39 | 1008.1 |
| 20260503225555 | 13 | 308 | 3.2 | 0.0 | 0.00 | 0.00 | 0.00 | 39 | 1008.1 |
| 20260503225055 | 14 | 318 | 8.0 | 1.6 | 0.00 | 0.00 | 0.00 | 39 | 1008.1 |
| 20260503224048 | 14 | 332 | 0.0 | 3.2 | 0.00 | 0.00 | 0.00 | 37 | 1008.0 |
| 20260503223548 | 14 | 307 | 8.0 | 0.0 | 0.00 | 0.00 | 0.00 | 37 | 1007.9 |
| 20260503223049 | 14 | 205 | 0.0 | 0.0 | 0.00 | 0.00 | 0.00 | 37 | 1008.0 |
| 20260503222545 | 15 | 115 | 1.6 | 0.0 | 0.00 | 0.00 | 0.00 | 37 | 1008.0 |
| 20260503222347 | 15 | 318 | 1.6 | 4.8 | 0.00 | 0.00 | 0.00 | 38 | 1008.0 |
| 20260503222046 | 15 | 318 | 1.6 | 4.8 | 0.00 | 0.00 | 0.00 | 38 | 1008.0 |
| 20260503221546 | 15 | 193 | 1.6 | 0.0 | 0.00 | 0.00 | 0.00 | 36 | 1008.0 |
| 20260503221523 | 15 | 14 | 1.6 | 8.0 | 0.00 | 0.00 | 0.00 | 35 | 1008.0 |
| 20260503221040 | 15 | 14 | 1.6 | 8.0 | 0.00 | 0.00 | 0.00 | 35 | 1008.0 |
| 20260503220817 | 15 | 156 | 0.0 | 0.0 | 0.00 | 0.00 | 0.00 | 35 | 1007.9 |
| 20260503220530 | 15 | 156 | 0.0 | 0.0 | 0.00 | 0.00 | 0.00 | 35 | 1007.9 |
| 20260503220020 | 15 | 359 | 9.7 | 8.0 | 0.00 | 0.00 | 0.00 | 34 | 1007.9 |
| 20260503215526 | 15 | 359 | 9.7 | 8.0 | 0.00 | 0.00 | 0.00 | 34 | 1007.9 |
| 20260503215520 | 15 | 120 | 8.0 | 4.8 | 0.00 | 0.00 | 0.00 | 34 | 1008.0 |
| 20260503215026 | 15 | 120 | 8.0 | 4.8 | 0.00 | 0.00 | 0.00 | 34 | 1008.0 |
| 20260503215004 | 15 | 141 | 6.4 | 0.0 | 0.00 | 0.00 | 0.00 | 34 | 1007.8 |
| 20260503214526 | 15 | 141 | 6.4 | 0.0 | 0.00 | 0.00 | 0.00 | 34 | 1007.8 |
| 20260503214022 | 16 | 359 | 0.0 | 0.0 | 0.00 | 0.00 | 0.00 | 34 | 1007.9 |
| 20260503214019 | 16 | 23 | 4.8 | 9.7 | 0.00 | 0.00 | 0.00 | 34 | 1007.8 |
| 20260503213522 | 16 | 23 | 4.8 | 9.7 | 0.00 | 0.00 | 0.00 | 34 | 1007.8 |
| 20260503213505 | 16 | 187 | 6.4 | 9.7 | 0.00 | 0.00 | 0.00 | 35 | 1007.9 |
| 20260503213023 | 16 | 187 | 6.4 | 9.7 | 0.00 | 0.00 | 0.00 | 35 | 1007.9 |
| 20260503212520 | 16 | 284 | 0.0 | 0.0 | 0.00 | 0.00 | 0.00 | 34 | 1007.9 |
| 20260503212015 | 15 | 69 | 0.0 | 0.0 | 0.00 | 0.00 | 0.00 | 34 | 1007.9 |
| 20260503211514 | 15 | 170 | 6.4 | 0.0 | 0.00 | 0.00 | 0.00 | 34 | 1007.8 |
| 20260503210009 | 16 | 262 | 0.0 | 6.4 | 0.00 | 0.00 | 0.00 | 35 | 1007.9 |
| 20260503205005 | 15 | 221 | 6.4 | 11.3 | 0.00 | 0.00 | 0.00 | 35 | 1007.9 |
| 20260503204506 | 15 | 304 | 3.2 | 14.5 | 0.00 | 0.00 | 0.00 | 33 | 1007.9 |
| 20260503204000 | 15 | 359 | 11.3 | 8.0 | 0.00 | 0.00 | 0.00 | 34 | 1008.0 |
| 20260503203500 | 15 | 243 | 6.4 | 4.8 | 0.00 | 0.00 | 0.00 | 35 | 1008.1 |
| 20260503203000 | 15 | 266 | 11.3 | 12.9 | 0.00 | 0.00 | 0.00 | 33 | 1008.2 |
| 20260503202457 | 15 | 242 | 11.3 | 11.3 | 0.00 | 0.00 | 0.00 | 34 | 1008.2 |
| 20260503201957 | 15 | 221 | 0.0 | 8.0 | 0.00 | 0.00 | 0.00 | 35 | 1008.1 |
| 20260503201458 | 15 | 197 | 8.0 | 9.7 | 0.00 | 0.00 | 0.00 | 35 | 1008.3 |
| 20260503200952 | 15 | 21 | 6.4 | 12.9 | 0.00 | 0.00 | 0.00 | 34 | 1008.3 |
| 20260503200917 | 16 | 25 | 3.2 | 14.5 | 0.00 | 0.00 | 0.00 | 34 | 1008.3 |
| 20260503200553 | 16 | 25 | 3.2 | 14.5 | 0.00 | 0.00 | 0.00 | 34 | 1008.3 |
| 20260503200450 | 16 | 25 | 3.2 | 14.5 | 0.00 | 0.00 | 0.00 | 34 | 1008.3 |
| 20260503195951 | 16 | 18 | 4.8 | 8.0 | 0.00 | 0.00 | 0.00 | 34 | 1008.4 |
| 20260503195447 | 15 | 82 | 9.7 | 3.2 | 0.00 | 0.00 | 0.00 | 34 | 1008.4 |
| 20260503194947 | 15 | 359 | 6.4 | 4.8 | 0.00 | 0.00 | 0.00 | 35 | 1008.2 |
| 20260503194448 | 15 | 48 | 6.4 | 3.2 | 0.00 | 0.00 | 0.00 | 34 | 1008.4 |
| 20260503193945 | 15 | 60 | 9.7 | 8.0 | 0.00 | 0.00 | 0.00 | 36 | 1008.4 |
| 20260503193546 | 15 | 280 | 3.2 | 11.3 | 0.00 | 0.00 | 0.00 | 35 | 1008.5 |
| 20260503193445 | 15 | 280 | 3.2 | 11.3 | 0.00 | 0.00 | 0.00 | 35 | 1008.5 |
| 20260503192946 | 15 | 356 | 9.7 | 9.7 | 0.00 | 0.00 | 0.00 | 35 | 1008.6 |
| 20260503191944 | 15 | 359 | 8.0 | 6.4 | 0.00 | 0.00 | 0.00 | 35 | 1008.6 |
| 20260503191445 | 15 | 103 | 8.0 | 8.0 | 0.00 | 0.00 | 0.00 | 35 | 1008.7 |
| 20260503190940 | 15 | 257 | 11.3 | 1.6 | 0.00 | 0.00 | 0.00 | 35 | 1008.7 |
| 20260503190439 | 16 | 62 | 11.3 | 11.3 | 0.00 | 0.00 | 0.00 | 35 | 1008.6 |
| 20260503185438 | 16 | 30 | 9.7 | 11.3 | 0.00 | 0.00 | 0.00 | 36 | 1008.7 |
| 20260503184938 | 16 | 231 | 6.4 | 12.9 | 0.00 | 0.00 | 0.00 | 34 | 1008.8 |
| 20260503183935 | 15 | 174 | 4.8 | 4.8 | 0.00 | 0.00 | 0.00 | 36 | 1009.1 |
| 20260503183435 | 15 | 253 | 8.0 | 12.9 | 0.00 | 0.00 | 0.00 | 36 | 1009.1 |
| 20260503182935 | 15 | 218 | 4.8 | 8.0 | 0.00 | 0.00 | 0.00 | 37 | 1009.2 |
| 20260503182432 | 15 | 51 | 8.0 | 9.7 | 0.00 | 0.00 | 0.00 | 36 | 1009.1 |
| 20260503181931 | 15 | 59 | 3.2 | 3.2 | 0.00 | 0.00 | 0.00 | 37 | 1009.1 |
| 20260503181430 | 16 | 20 | 9.7 | 11.3 | 0.00 | 0.00 | 0.00 | 37 | 1009.2 |
| 20260503180923 | 15 | 158 | 6.4 | 4.8 | 0.00 | 0.00 | 0.00 | 37 | 1009.1 |
| 20260503175922 | 15 | 11 | 9.7 | 8.0 | 0.00 | 0.00 | 0.00 | 40 | 1009.2 |
| 20260503175419 | 14 | 66 | 9.7 | 12.9 | 0.00 | 0.00 | 0.00 | 37 | 1009.2 |
| 20260503174417 | 13 | 298 | 9.7 | 6.4 | 0.00 | 0.00 | 0.00 | 41 | 1009.3 |
| 20260503172916 | 13 | 66 | 11.3 | 8.0 | 0.00 | 0.00 | 0.00 | 39 | 1009.4 |
| 20260503172411 | 13 | 212 | 3.2 | 16.1 | 0.00 | 0.00 | 0.00 | 41 | 1009.5 |
| 20260503171911 | 13 | 59 | 6.4 | 12.9 | 0.00 | 0.00 | 0.00 | 41 | 1009.5 |
| 20260503171412 | 13 | 242 | 17.7 | 6.4 | 0.00 | 0.00 | 0.00 | 39 | 1009.5 |
| 20260503171236 | 13 | 229 | 8.0 | 14.5 | 0.00 | 0.00 | 0.00 | 42 | 1009.6 |
| 20260503170909 | 13 | 229 | 8.0 | 14.5 | 0.00 | 0.00 | 0.00 | 42 | 1009.6 |
| 20260503170409 | 13 | 319 | 6.4 | 4.8 | 0.00 | 0.00 | 0.00 | 41 | 1009.6 |
| 20260503150804 | 11 | 238 | 16.1 | 6.4 | 0.00 | 0.00 | 0.00 | 46 | 1010.4 |
| 20260503150640 | 11 | 266 | 1.6 | 3.2 | 0.00 | 0.00 | 0.00 | 47 | 1010.3 |
| 20260503150304 | 11 | 266 | 1.6 | 3.2 | 0.00 | 0.00 | 0.00 | 47 | 1010.3 |
| 20260503131235 | 12 | 60 | 8.0 | 4.8 | 0.00 | 0.00 | 0.00 | 49 | 1010.2 |
| 20260503130956 | 12 | 179 | 6.4 | 6.4 | 0.00 | 0.00 | 0.00 | 48 | 1010.3 |
| 20260503130731 | 12 | 179 | 6.4 | 6.4 | 0.00 | 0.00 | 0.00 | 48 | 1010.3 |
| 20260503130232 | 13 | 59 | 9.7 | 12.9 | 0.00 | 0.00 | 0.00 | 46 | 1010.3 |
| 20260503120214 | 10 | 174 | 8.0 | 1.6 | 0.00 | 0.00 | 0.00 | 58 | 1010.2 |
| 20260503110647 | 5 | 146 | 4.8 | 3.2 | 0.00 | 0.00 | 0.00 | 71 | 1009.7 |
| 20260503110148 | 5 | 73 | 0.0 | 6.4 | 0.00 | 0.00 | 0.00 | 71 | 1009.6 |
| 20260503100109 | 5 | 198 | 1.6 | 8.0 | 0.00 | 0.00 | 0.00 | 70 | 1008.7 |